Location: Spruce Knob
(38.6995°N, 79.5330°W)
Time: 19:32:23
(UTC-04:00)

A-11 Canister half - Pass Details

Date: 28 January 2022
Orbit: 1513 x 1686 km, 47.2° (Epoch: 26 May)

Event Time Altitude Azimuth Distance (km) Brightness Sun altitude
Rises 23:15:37 0° 299° (WNW) 4,664 11.9 -63.5°
Enters shadow 23:18:09 - 294° (WNW) 3,877 11.4 -63.9°
Reaches altitude 10° 23:18:50 10° 292° (WNW) 3,674 - -63.9°
Maximum altitude 23:27:18 43° 226° (SW) 2,026 - -65.0°
Drops below altitude 10° 23:35:51 10° 158° (SSE) 3,696 - -66.0°
Sets 23:39:06 0° 152° (SSE) 4,695 - -66.3°
